Weather History for Port Angeles, WA

Change the Weather History Date:

Sunday, December 22, 2013

  Actual Average Record
Temperature  
Mean Temperature 42 °F -  
Max Temperature 45 °F 44 °F 54 °F (1954)
Min Temperature 39 °F 34 °F 19 °F (1983)
Degree Days  
Heating Degree Days 23    
Moisture  
Dew Point 42 °F    
Average Humidity 95    
Maximum Humidity 100    
Minimum Humidity 92    
Precipitation  
Precipitation 0.09 in - - ()
Sea Level Pressure  
Sea Level Pressure 30.24 in    
Wind  
Wind Speed 1 mph (SW)    
Max Wind Speed 6 mph    
Max Gust Speed -    
Visibility 3 miles    
Events Fog , Rain    
Averages and records for this station are not official NWS values.
T = Trace of Precipitation, MM = Missing Value Source: NWS Daily Summary

Daily Weather History Graph

Daily Weather History Graph

Search for Another Location

Airport:

Trip Planner

Search our weather history database for the weather conditions in past years. The results will help you decide how hot, cold, wet, or windy it might be!

Date:

Astronomy

Dec. 22, 2013 Rise Set
Actual Time 8:02 AM PST 4:23 PM PST
Civil Twilight 7:25 AM PST 5:00 PM PST
Nautical Twilight 6:45 AM PST 5:39 PM PST
Astronomical Twilight 6:07 AM PST 6:17 PM PST
Moon 10:04 PM PST (12/22) 10:40 AM PST (12/22)
Length of Visible Light 9h 34m
Length of Day
8h 21m
Waning Gibbous, 76% of the Moon is Illuminated
Dec 22
Waning Gibbous
Dec 25
Last Quarter
Jan 1
New
Jan 7
First Quarter
Jan 15
Full

Hourly Weather History & Observations

Time (PST) Temp. Windchill Dew Point Humidity Pressure Visibility Wind Dir Wind Speed Gust Speed Precip Events Conditions
12:53 AM 39.9 °F - 39.0 °F 97% 30.16 in 6.0 mi Calm Calm - N/A   Overcast
1:53 AM 39.9 °F - 37.9 °F 93% 30.17 in 6.0 mi Calm Calm - 0.00 in   Overcast
2:07 AM 41.0 °F - 39.9 °F 96% 30.17 in 4.0 mi Calm Calm - N/A   Overcast
2:20 AM 41.0 °F 38.0 °F 39.0 °F 93% 30.17 in 3.0 mi SSE 4.6 mph - N/A   Overcast
2:29 AM 41.0 °F 38.0 °F 39.0 °F 93% 30.17 in 2.5 mi SE 4.6 mph - N/A   Overcast
2:48 AM 41.0 °F - 39.2 °F 93% 30.17 in 3.0 mi Calm Calm - N/A   Overcast
2:53 AM 41.0 °F 39.0 °F 39.9 °F 96% 30.18 in 4.0 mi ESE 3.5 mph - N/A   Overcast
3:24 AM 41.0 °F 39.0 °F 39.9 °F 96% 30.17 in 10.0 mi SE 3.5 mph - N/A   Overcast
3:53 AM 42.1 °F - 41.0 °F 96% 30.18 in 10.0 mi Calm Calm - N/A   Overcast
4:18 AM 41.0 °F 39.0 °F 39.9 °F 96% 30.16 in 9.0 mi WSW 3.5 mph - N/A   Overcast
4:53 AM 41.0 °F - 39.0 °F 93% 30.17 in 10.0 mi Calm Calm - N/A   Overcast
5:00 AM 41.0 °F - 39.9 °F 96% 30.17 in 10.0 mi Calm Calm - N/A   Overcast
5:53 AM 41.0 °F - 39.9 °F 96% 30.19 in 10.0 mi Calm Calm - 0.00 in Rain Light Rain
6:53 AM 42.1 °F - 39.9 °F 92% 30.20 in 9.0 mi Calm Calm - 0.00 in   Overcast
7:53 AM 42.1 °F - 41.0 °F 96% 30.22 in 1.5 mi Calm Calm - N/A   Overcast
7:59 AM 42.1 °F - 41.0 °F 96% 30.20 in 0.5 mi Calm Calm - N/A Fog Fog
8:08 AM 42.1 °F - 41.0 °F 96% 30.21 in 0.2 mi Calm Calm - N/A Fog Fog
8:28 AM 42.1 °F - 41.0 °F 96% 30.22 in 1.0 mi Calm Calm - N/A   Overcast
8:34 AM 42.1 °F - 41.0 °F 96% 30.22 in 3.0 mi Calm Calm - N/A   Overcast
8:44 AM 42.1 °F - 41.0 °F 96% 30.23 in 5.0 mi Calm Calm - N/A   Overcast
8:53 AM 42.1 °F 40.2 °F 41.0 °F 96% 30.24 in 10.0 mi WSW 3.5 mph - N/A   Overcast
9:50 AM 42.8 °F - 42.8 °F 100% 30.24 in 10.0 mi Calm Calm - N/A   Overcast
9:53 AM 43.0 °F - 42.1 °F 97% 30.25 in 10.0 mi Calm Calm - N/A   Overcast
10:06 AM 44.1 °F - 42.1 °F 93% 30.25 in 10.0 mi Calm Calm - N/A   Overcast
10:18 AM 44.1 °F - 42.1 °F 93% 30.25 in 10.0 mi Calm Calm - N/A   Overcast
10:43 AM 44.1 °F - 42.1 °F 93% 30.26 in 1.8 mi Calm Calm - N/A   Overcast
10:49 AM 44.6 °F - 42.8 °F 93% 30.26 in 0.2 mi Calm Calm - N/A Fog Fog
10:53 AM 44.1 °F - 42.1 °F 93% 30.27 in 0.2 mi Calm Calm - N/A Fog Fog
11:53 AM 44.1 °F - 42.1 °F 93% 30.26 in 0.2 mi Calm Calm - N/A Fog Fog
12:23 PM 44.1 °F - 43.0 °F 96% 30.25 in 0.2 mi Calm Calm - N/A Fog Fog
12:36 PM 44.1 °F - 43.0 °F 96% 30.25 in 1.0 mi Calm Calm - N/A   Mist
12:41 PM 44.1 °F 42.5 °F 43.0 °F 96% 30.24 in 3.0 mi ESE 3.5 mph - N/A   Overcast
12:53 PM 44.1 °F 42.5 °F 43.0 °F 96% 30.25 in 6.0 mi Variable 3.5 mph - N/A   Overcast
12:58 PM 45.0 °F 42.6 °F 43.0 °F 93% 30.25 in 1.2 mi NNE 4.6 mph - N/A   Overcast
1:04 PM 45.0 °F 42.6 °F 43.0 °F 93% 30.26 in 0.2 mi North 4.6 mph - N/A Fog Fog
1:20 PM 44.1 °F - 43.0 °F 96% 30.27 in 0.5 mi Calm Calm - N/A Fog Fog
1:44 PM 44.1 °F - 43.0 °F 96% 30.27 in 2.0 mi Calm Calm - N/A   Overcast
1:51 PM 44.6 °F - 42.8 °F 93% 30.26 in 1.2 mi Calm Calm - N/A   Overcast
1:53 PM 44.1 °F - 43.0 °F 96% 30.27 in 1.0 mi Calm Calm - N/A   Overcast
2:05 PM 44.1 °F - 43.0 °F 96% 30.26 in 4.0 mi Calm Calm - N/A   Overcast
2:45 PM 44.1 °F - 43.0 °F 96% 30.26 in 1.8 mi Calm Calm - N/A   Overcast
2:53 PM 44.1 °F - 43.0 °F 96% 30.27 in 0.8 mi Calm Calm - N/A   Overcast
3:04 PM 44.1 °F - 43.0 °F 96% 30.27 in 0.8 mi Calm Calm - N/A   Mist
3:53 PM 44.1 °F - 43.0 °F 96% 30.27 in 0.5 mi Calm Calm - N/A Fog Fog
4:17 PM 44.1 °F - 43.0 °F 96% 30.27 in 1.5 mi Calm Calm - N/A   Overcast
4:30 PM 44.1 °F - 43.0 °F 96% 30.28 in 2.5 mi Calm Calm - N/A   Overcast
4:39 PM 44.1 °F - 43.0 °F 96% 30.28 in 3.0 mi Calm Calm - N/A   Overcast
4:48 PM 44.6 °F - 42.8 °F 93% 30.28 in 1.8 mi Calm Calm - N/A   Overcast
4:53 PM 44.1 °F - 42.1 °F 93% 30.28 in 1.2 mi Calm Calm - N/A   Overcast
5:14 PM 44.1 °F - 43.0 °F 96% 30.28 in 0.8 mi Calm Calm - N/A   Mist
5:42 PM 44.1 °F 41.5 °F 43.0 °F 96% 30.27 in 2.0 mi ESE 4.6 mph - N/A   Overcast
5:51 PM 44.6 °F 43.1 °F 42.8 °F 93% 30.27 in 4.0 mi East 3.5 mph - N/A   Overcast
5:53 PM 44.1 °F - 43.0 °F 96% 30.28 in 4.0 mi Calm Calm - N/A   Overcast
6:05 PM 44.1 °F - 43.0 °F 96% 30.27 in 1.8 mi Calm Calm - N/A   Overcast
6:15 PM 44.1 °F - 43.0 °F 96% 30.27 in 2.5 mi Calm Calm - N/A   Overcast
6:24 PM 44.1 °F - 42.1 °F 93% 30.28 in 0.8 mi Calm Calm - N/A   Overcast
6:41 PM 44.1 °F - 43.0 °F 96% 30.27 in 0.5 mi Calm Calm - 0.01 in Fog , Rain Light Rain
6:44 PM 44.1 °F - 43.0 °F 96% 30.26 in 0.2 mi Calm Calm - 0.01 in Fog , Rain Light Rain
6:53 PM 44.1 °F - 42.1 °F 93% 30.27 in 0.2 mi Calm Calm - 0.01 in Fog , Rain Light Rain
7:08 PM 44.1 °F - 42.1 °F 93% 30.25 in 0.5 mi Calm Calm - 0.00 in Fog , Rain Light Rain
7:22 PM 43.0 °F - 42.1 °F 97% 30.25 in 0.5 mi Calm Calm - 0.01 in Fog , Rain Light Rain
7:37 PM 43.0 °F 41.3 °F 42.1 °F 97% 30.25 in 0.5 mi South 3.5 mph - 0.01 in Fog Fog
7:53 PM 44.1 °F - 43.0 °F 96% 30.25 in 1.5 mi Calm Calm - 0.02 in Rain Light Rain
8:16 PM 43.0 °F - 42.1 °F 97% 30.24 in 1.0 mi Calm Calm - 0.00 in Rain Light Rain
8:21 PM 43.0 °F - 42.1 °F 97% 30.24 in 0.8 mi Calm Calm - 0.01 in Rain Light Rain
8:29 PM 43.0 °F - 42.1 °F 97% 30.24 in 1.0 mi Calm Calm - 0.01 in Rain Light Rain
8:42 PM 43.0 °F - 42.1 °F 97% 30.23 in 0.8 mi Calm Calm - 0.01 in Rain Light Rain
8:53 PM 43.0 °F - 42.1 °F 97% 30.24 in 1.2 mi Calm Calm - 0.01 in   Overcast
9:01 PM 43.0 °F - 41.0 °F 93% 30.23 in 0.8 mi Calm Calm - N/A   Overcast
9:16 PM 43.0 °F - 42.1 °F 97% 30.23 in 1.5 mi Calm Calm - N/A   Overcast
9:25 PM 43.0 °F 41.3 °F 42.1 °F 97% 30.23 in 3.0 mi West 3.5 mph - N/A   Overcast
9:36 PM 43.0 °F 40.3 °F 42.1 °F 97% 30.23 in 1.8 mi WNW 4.6 mph - N/A   Overcast
9:49 PM 44.6 °F 42.2 °F 42.8 °F 93% 30.23 in 0.8 mi WNW 4.6 mph - N/A   Mist
9:53 PM 44.1 °F 40.8 °F 42.1 °F 93% 30.25 in 0.8 mi WNW 5.8 mph - N/A   Mist
10:03 PM 44.1 °F 41.5 °F 42.1 °F 93% 30.23 in 1.2 mi West 4.6 mph - 0.00 in Rain Light Rain
10:19 PM 44.1 °F 41.5 °F 43.0 °F 96% 30.24 in 3.0 mi WNW 4.6 mph - 0.01 in Rain Light Rain
10:53 PM 44.1 °F 42.5 °F 43.0 °F 96% 30.24 in 4.0 mi SSW 3.5 mph - 0.04 in Rain Light Rain
11:53 PM 44.1 °F - 43.0 °F 96% 30.21 in 7.0 mi Calm Calm - 0.01 in Rain Light Rain